When you browse on this site, cookies collect data to enhance your experience and personalize the content and advertising you see.
Visit our Privacy Policy to learn more. By continuing to use the site, you agree to this use of cookies and data.
  • In United Kingdom
  • List of Countries
  • For 7 days
  • Water Temperature
  • Weather Map
  • Weather Widgets
  • user-avatar
    Login

    Hourly Weather Pivnichne

    Today, 29 May, Friday

    Time Temperature Precipitation Wind Pressure Humidity
    00:00 +14°C° 0 mm 3 mps 740 mmHg 96%
    01:00 +14°C° 0 mm 3 mps 740 mmHg 96%
    02:00 +14°C° 0 mm 3 mps 741 mmHg 96%
    03:00 +15°C° 0 mm 2 mps 740 mmHg 96%
    04:00 +15°C° 0 mm 2 mps 740 mmHg 97%
    05:00 +15°C° 0 mm 2 mps 740 mmHg 97%
    06:00 +16°C° 0 mm 2 mps 740 mmHg 93%
    07:00 +17°C° 0 mm 3 mps 740 mmHg 89%
    08:00 +18°C° 0 mm 3 mps 740 mmHg 86%
    09:00 +19°C° 0.1 mm 3 mps 740 mmHg 83%
    10:00 +20°C° 0.1 mm 3 mps 740 mmHg 80%
    11:00 +21°C° 0.1 mm 3 mps 740 mmHg 78%
    12:00 +20°C° 0.3 mm 3 mps 740 mmHg 82%
    13:00 +20°C° 0.3 mm 3 mps 739 mmHg 86%
    14:00 +19°C° 0.3 mm 2 mps 739 mmHg 90%
    15:00 +19°C° 0.5 mm 2 mps 739 mmHg 89%
    16:00 +20°C° 0.5 mm 2 mps 738 mmHg 87%
    17:00 +20°C° 0.5 mm 2 mps 738 mmHg 86%
    18:00 +19°C° 0.3 mm 2 mps 738 mmHg 88%
    19:00 +18°C° 0.3 mm 2 mps 738 mmHg 90%
    20:00 +17°C° 0.3 mm 2 mps 738 mmHg 92%
    21:00 +17°C° 0 mm 2 mps 737 mmHg 93%
    22:00 +16°C° 0 mm 2 mps 737 mmHg 94%
    23:00 +16°C° 0 mm 2 mps 737 mmHg 95%

    Tomorrow, 30 May, Saturday

    Time Temperature Precipitation Wind Pressure Humidity
    00:00 +16°C° 0.2 mm 2 mps 737 mmHg 96%
    01:00 +15°C° 0.2 mm 2 mps 737 mmHg 97%
    02:00 +15°C° 0.2 mm 2 mps 737 mmHg 97%
    03:00 +15°C° 0.1 mm 2 mps 736 mmHg 97%
    04:00 +15°C° 0.1 mm 2 mps 736 mmHg 97%
    05:00 +15°C° 0.1 mm 2 mps 736 mmHg 97%
    06:00 +14°C° 0.2 mm 3 mps 736 mmHg 96%
    07:00 +16°C° 0.2 mm 3 mps 736 mmHg 94%
    08:00 +15°C° 0.2 mm 4 mps 736 mmHg 93%
    09:00 +17°C° 0.4 mm 4 mps 736 mmHg 90%
    10:00 +17°C° 0.4 mm 4 mps 736 mmHg 88%
    11:00 +16°C° 0.4 mm 5 mps 736 mmHg 85%
    12:00 +18°C° 0.1 mm 4 mps 736 mmHg 81%
    13:00 +18°C° 0.1 mm 4 mps 736 mmHg 77%
    14:00 +19°C° 0.1 mm 4 mps 736 mmHg 73%
    15:00 +19°C° 0.4 mm 4 mps 736 mmHg 76%
    16:00 +18°C° 0.4 mm 4 mps 736 mmHg 78%
    17:00 +18°C° 0.4 mm 4 mps 736 mmHg 81%
    18:00 +17°C° 0.3 mm 4 mps 736 mmHg 85%
    19:00 +14°C° 0.3 mm 4 mps 737 mmHg 88%
    20:00 +13°C° 0.3 mm 3 mps 737 mmHg 92%
    21:00 +13°C° 0 mm 4 mps 737 mmHg 93%
    22:00 +12°C° 0 mm 4 mps 738 mmHg 94%
    23:00 +10°C° 0 mm 5 mps 738 mmHg 95%

    Day after tomorrow, 31 May, Sunday

    Time Temperature Precipitation Wind Pressure Humidity
    00:00 +11°C° 0 mm 4 mps 738 mmHg 95%
    01:00 +10°C° 0 mm 4 mps 738 mmHg 95%
    02:00 +10°C° 0 mm 4 mps 738 mmHg 95%
    03:00 +10°C° 0 mm 4 mps 738 mmHg 95%
    04:00 +10°C° 0 mm 4 mps 739 mmHg 95%
    05:00 +10°C° 0 mm 4 mps 739 mmHg 95%
    06:00 +10°C° 0 mm 5 mps 739 mmHg 91%
    07:00 +12°C° 0 mm 5 mps 739 mmHg 88%
    08:00 +13°C° 0 mm 5 mps 740 mmHg 84%
    09:00 +14°C° 0.1 mm 5 mps 740 mmHg 81%
    10:00 +15°C° 0.1 mm 5 mps 740 mmHg 78%
    11:00 +16°C° 0.1 mm 5 mps 740 mmHg 75%
    12:00 +17°C° 0.4 mm 6 mps 740 mmHg 74%
    13:00 +17°C° 0.4 mm 6 mps 740 mmHg 72%
    14:00 +19°C° 0.4 mm 6 mps 740 mmHg 71%
    15:00 +19°C° 0.6 mm 5 mps 740 mmHg 74%
    16:00 +18°C° 0.6 mm 4 mps 740 mmHg 77%
    17:00 +18°C° 0.6 mm 4 mps 740 mmHg 80%
    18:00 +16°C° 0.3 mm 3 mps 740 mmHg 83%
    19:00 +15°C° 0.3 mm 2 mps 741 mmHg 87%
    20:00 +14°C° 0.3 mm 1 mps 741 mmHg 90%
    21:00 +13°C° 0 mm 1 mps 741 mmHg 90%
    22:00 +12°C° 0 mm 1 mps 741 mmHg 91%
    23:00 +12°C° 0 mm 1 mps 741 mmHg 92%

    1 June, Monday

    Time Temperature Precipitation Wind Pressure Humidity
    00:00 +12°C° 0 mm 1 mps 741 mmHg 92%
    01:00 +11°C° 0 mm 1 mps 741 mmHg 93%
    02:00 +11°C° 0 mm 1 mps 741 mmHg 94%
    03:00 +11°C° 0 mm 1 mps 741 mmHg 94%
    04:00 +12°C° 0 mm 1 mps 741 mmHg 95%
    05:00 +12°C° 0 mm 1 mps 742 mmHg 95%
    06:00 +13°C° 0 mm 2 mps 742 mmHg 93%
    07:00 +14°C° 0 mm 2 mps 742 mmHg 91%
    08:00 +14°C° 0 mm 3 mps 743 mmHg 89%
    09:00 +14°C° 0.1 mm 4 mps 743 mmHg 89%
    10:00 +13°C° 0.1 mm 4 mps 743 mmHg 88%
    11:00 +13°C° 0.1 mm 5 mps 743 mmHg 88%
    12:00 +14°C° 0 mm 5 mps 743 mmHg 85%
    13:00 +14°C° 0 mm 5 mps 743 mmHg 82%
    14:00 +14°C° 0 mm 5 mps 743 mmHg 79%
    15:00 +15°C° 0.1 mm 5 mps 743 mmHg 79%
    16:00 +15°C° 0.1 mm 5 mps 743 mmHg 79%
    17:00 +15°C° 0.1 mm 5 mps 743 mmHg 79%
    18:00 +13°C° 0.1 mm 4 mps 743 mmHg 83%
    19:00 +12°C° 0.1 mm 4 mps 743 mmHg 86%
    20:00 +11°C° 0.1 mm 4 mps 743 mmHg 89%
    21:00 +10°C° 0 mm 4 mps 743 mmHg 90%
    22:00 +8°C° 0 mm 4 mps 743 mmHg 91%
    23:00 +7°C° 0 mm 4 mps 743 mmHg 91%

    2 June, Tuesday

    Time Temperature Precipitation Wind Pressure Humidity
    00:00 +7°C° 0 mm 4 mps 743 mmHg 90%
    01:00 +6°C° 0 mm 4 mps 743 mmHg 89%
    02:00 +6°C° 0 mm 4 mps 743 mmHg 88%
    03:00 +6°C° 0 mm 4 mps 743 mmHg 87%
    04:00 +6°C° 0 mm 4 mps 743 mmHg 85%
    05:00 +6°C° 0 mm 4 mps 743 mmHg 84%
    06:00 +8°C° 0 mm 5 mps 744 mmHg 80%
    07:00 +9°C° 0 mm 5 mps 744 mmHg 77%
    08:00 +10°C° 0 mm 5 mps 744 mmHg 73%
    09:00 +12°C° 0.1 mm 5 mps 744 mmHg 70%
    10:00 +13°C° 0.1 mm 5 mps 744 mmHg 68%
    11:00 +14°C° 0.1 mm 5 mps 744 mmHg 65%
    12:00 +14°C° 0.1 mm 5 mps 744 mmHg 65%
    13:00 +14°C° 0.1 mm 5 mps 744 mmHg 65%
    14:00 +14°C° 0.1 mm 5 mps 744 mmHg 65%
    15:00 +14°C° 0.1 mm 4 mps 744 mmHg 67%
    16:00 +14°C° 0.1 mm 4 mps 744 mmHg 69%
    17:00 +14°C° 0.1 mm 4 mps 744 mmHg 71%
    18:00 +12°C° 0.1 mm 3 mps 744 mmHg 77%
    19:00 +11°C° 0.1 mm 3 mps 744 mmHg 83%
    20:00 +9°C° 0.1 mm 3 mps 744 mmHg 88%
    21:00 +8°C° 0 mm 3 mps 744 mmHg 90%
    22:00 +8°C° 0 mm 3 mps 744 mmHg 91%
    23:00 +7°C° 0 mm 3 mps 744 mmHg 93%

    3 June, Wednesday

    Time Temperature Precipitation Wind Pressure Humidity
    00:00 +7°C° 0 mm 3 mps 744 mmHg 93%
    01:00 +5°C° 0 mm 3 mps 744 mmHg 93%
    02:00 +5°C° 0 mm 3 mps 744 mmHg 94%
    03:00 +5°C° 0 mm 3 mps 744 mmHg 94%
    04:00 +7°C° 0 mm 3 mps 744 mmHg 94%
    05:00 +7°C° 0 mm 3 mps 744 mmHg 94%
    06:00 +9°C° 0 mm 3 mps 744 mmHg 89%
    07:00 +10°C° 0 mm 3 mps 744 mmHg 84%
    08:00 +12°C° 0 mm 4 mps 745 mmHg 80%
    09:00 +13°C° 0.5 mm 4 mps 745 mmHg 77%
    10:00 +14°C° 0.5 mm 4 mps 745 mmHg 74%
    11:00 +15°C° 0.5 mm 4 mps 745 mmHg 71%
    12:00 +15°C° 0.7 mm 4 mps 745 mmHg 72%
    13:00 +15°C° 0.7 mm 4 mps 745 mmHg 72%
    14:00 +15°C° 0.7 mm 4 mps 744 mmHg 72%
    15:00 +15°C° 0.6 mm 4 mps 744 mmHg 74%
    16:00 +15°C° 0.6 mm 4 mps 744 mmHg 76%
    17:00 +16°C° 0.6 mm 3 mps 744 mmHg 77%
    18:00 +13°C° 0.2 mm 3 mps 744 mmHg 81%
    19:00 +12°C° 0.2 mm 3 mps 744 mmHg 85%
    20:00 +10°C° 0.2 mm 2 mps 744 mmHg 89%
    21:00 +10°C° 0 mm 2 mps 745 mmHg 90%
    22:00 +9°C° 0 mm 2 mps 745 mmHg 91%
    23:00 +9°C° 0 mm 2 mps 745 mmHg 92%
    Show more